MOLNIYA 1-S

Last updated on Tue Jun 27 2023 00:03:05 GMT+0000 (Coordinated Universal Time)

1 07392U 74060A 23177.33730181 .00000105 00000+0 00000+0 0 9998 2 07392 4.1672 277.0380 0011339 219.2691 312.9880 1.00326924123269
UTC large
Height (km)
Speed (km/s)
/
Latitude / Longitude
Inclination (degrees)
Orbital Period (minutes)
Azimuth
Elevation
Range (km)
Doppler Factor

Next 0 passes for location: London (51.5072 / 0.1276)

Sorry there are no passes over London.
MOLNIYA 1-S